TimeBST,TemperatureF,Dew PointF,Humidity,Sea Level PressureIn,VisibilityMPH,Wind Direction,Wind SpeedMPH,Gust SpeedMPH,PrecipitationIn,Events,Conditions,WindDirDegrees,DateUTC
12:20 AM,44.6,44.6,100,30.06,-9999.0,WNW,3.5,-,N/A,,Clear,290,2012-10-06 23:20:00
12:50 AM,42.8,42.8,100,30.06,-9999.0,West,3.5,-,N/A,,Clear,280,2012-10-06 23:50:00
1:20 AM,42.8,42.8,100,30.06,-9999.0,West,4.6,-,N/A,,Clear,270,2012-10-07 00:20:00
1:50 AM,42.8,42.8,100,30.06,3.7,WNW,2.3,-,N/A,,Unknown,290,2012-10-07 00:50:00
2:20 AM,42.8,42.8,100,30.06,5.6,Calm,Calm,-,N/A,,Unknown,0,2012-10-07 01:20:00
2:50 AM,39.2,37.4,93,30.06,0.7,Calm,Calm,-,N/A,,Mist,0,2012-10-07 01:50:00
3:20 AM,37.4,37.4,100,30.09,1.4,Calm,Calm,-,N/A,,Mist,0,2012-10-07 02:20:00
3:50 AM,41.0,39.2,93,30.09,3.1,West,4.6,-,N/A,,Mist,270,2012-10-07 02:50:00
4:20 AM,39.2,39.2,100,30.09,3.1,West,4.6,-,N/A,,Scattered Clouds,270,2012-10-07 03:20:00
4:50 AM,42.8,42.8,100,30.09,1.9,WNW,5.8,-,N/A,,Scattered Clouds,290,2012-10-07 03:50:00
5:20 AM,44.6,44.6,100,30.09,0.1,WNW,6.9,-,N/A,,Scattered Clouds,300,2012-10-07 04:20:00
5:50 AM,44.6,44.6,100,30.12,1.2,NW,4.6,-,N/A,,Scattered Clouds,320,2012-10-07 04:50:00
6:20 AM,44.6,44.6,100,30.12,1.2,NNW,4.6,-,N/A,,Mostly Cloudy,340,2012-10-07 05:20:00
6:50 AM,42.8,42.8,100,30.12,0.9,NW,2.3,-,N/A,,Mostly Cloudy,320,2012-10-07 05:50:00
7:20 AM,42.8,42.8,100,30.12,0.2,NW,2.3,-,N/A,Fog,Fog,320,2012-10-07 06:20:00
7:50 AM,42.8,42.8,100,30.15,0.1,NW,2.3,-,N/A,Fog,Fog,320,2012-10-07 06:50:00
8:20 AM,42.8,42.8,100,30.15,0.1,West,3.5,-,N/A,Fog,Fog,280,2012-10-07 07:20:00
8:50 AM,42.8,42.8,100,30.15,0.2,Variable,3.5,-,N/A,Fog,Fog,0,2012-10-07 07:50:00
9:20 AM,44.6,44.6,100,30.18,0.2,Calm,Calm,-,N/A,Fog,Fog,0,2012-10-07 08:20:00
9:50 AM,46.4,46.4,100,30.18,1.6,Calm,Calm,-,N/A,,Mostly Cloudy,0,2012-10-07 08:50:00
10:20 AM,46.4,46.4,100,30.18,6.2,Variable,2.3,-,N/A,,Partly Cloudy,0,2012-10-07 09:20:00
10:50 AM,50.0,46.4,87,30.18,6.2,Calm,Calm,-,N/A,,Partly Cloudy,0,2012-10-07 09:50:00
11:20 AM,53.6,46.4,77,30.21,6.2,Variable,2.3,-,N/A,,Partly Cloudy,0,2012-10-07 10:20:00
11:50 AM,53.6,44.6,72,30.21,6.2,Variable,2.3,-,N/A,,Scattered Clouds,0,2012-10-07 10:50:00
12:20 PM,51.8,42.8,71,30.21,6.2,NW,2.3,-,N/A,,Scattered Clouds,310,2012-10-07 11:20:00
12:50 PM,55.4,44.6,67,30.21,6.2,Variable,2.3,-,N/A,,Scattered Clouds,0,2012-10-07 11:50:00
1:20 PM,55.4,42.8,63,30.18,6.2,Variable,2.3,-,N/A,,Partly Cloudy,0,2012-10-07 12:20:00
1:50 PM,55.4,42.8,63,30.18,6.2,Calm,Calm,-,N/A,,Partly Cloudy,0,2012-10-07 12:50:00
2:20 PM,55.4,42.8,63,30.18,6.2,SW,3.5,-,N/A,,Partly Cloudy,220,2012-10-07 13:20:00
2:50 PM,55.4,42.8,63,30.18,6.2,South,3.5,-,N/A,,Partly Cloudy,180,2012-10-07 13:50:00
3:20 PM,55.4,42.8,63,30.18,6.2,Variable,2.3,-,N/A,,Partly Cloudy,0,2012-10-07 14:20:00
3:50 PM,55.4,44.6,67,30.18,-9999.0,SSE,4.6,-,N/A,,Clear,160,2012-10-07 14:50:00
4:20 PM,53.6,46.4,77,30.18,6.2,South,4.6,-,N/A,,Partly Cloudy,180,2012-10-07 15:20:00
4:50 PM,53.6,46.4,77,30.18,-9999.0,South,4.6,-,N/A,,Clear,170,2012-10-07 15:50:00
5:20 PM,53.6,44.6,72,30.18,-9999.0,South,4.6,-,N/A,,Clear,170,2012-10-07 16:20:00
5:50 PM,51.8,44.6,76,30.18,-9999.0,SSE,4.6,-,N/A,,Clear,160,2012-10-07 16:50:00
6:20 PM,48.2,44.6,87,30.18,-9999.0,SSE,3.5,-,N/A,,Clear,160,2012-10-07 17:20:00
6:50 PM,48.2,44.6,87,30.18,-9999.0,SSE,4.6,-,N/A,,Clear,150,2012-10-07 17:50:00
7:20 PM,48.2,44.6,87,30.18,-9999.0,SSE,4.6,-,N/A,,Clear,150,2012-10-07 18:20:00
7:50 PM,48.2,44.6,87,30.18,-9999.0,SSE,3.5,-,N/A,,Clear,150,2012-10-07 18:50:00
8:20 PM,46.4,42.8,87,30.18,-9999.0,SSE,4.6,-,N/A,,Clear,150,2012-10-07 19:20:00
8:50 PM,46.4,42.8,87,30.18,-9999.0,SSE,3.5,-,N/A,,Clear,150,2012-10-07 19:50:00
9:20 PM,46.4,44.6,93,30.18,-9999.0,SSE,3.5,-,N/A,,Clear,150,2012-10-07 20:20:00
9:50 PM,44.6,42.8,93,30.18,5.6,SSE,3.5,-,N/A,,Unknown,150,2012-10-07 20:50:00
10:20 PM,42.8,41.0,93,30.15,5.6,SE,3.5,-,N/A,,Partly Cloudy,140,2012-10-07 21:20:00
10:50 PM,41.0,41.0,100,30.15,5.0,SE,2.3,-,N/A,,Scattered Clouds,140,2012-10-07 21:50:00
11:20 PM,39.2,39.2,100,30.15,4.3,SE,4.6,-,N/A,,Partly Cloudy,140,2012-10-07 22:20:00
11:50 PM,41.0,41.0,100,30.15,4.3,SE,4.6,-,N/A,Fog,Fog,140,2012-10-07 22:50:00